This is the latest recevied weather packets stored in our database for station/object HB9FHL-13. If no packets are shown the sender has not sent any weather packets the latest 10 day(s).
| Time | Temp. | Humidity | Pressure | Rain* | Wind** | Luminosity | Snow |
|---|---|---|---|---|---|---|---|
| 1777657655 | 17.78° C | - | 1018.1 hPa | 0 mm | - | - | - |
| 1777657353 | 18.33° C | - | 1022.8 hPa | 0 mm | - | - | - |
| 1777657053 | 17.78° C | - | 1020.2 hPa | 0 mm | - | - | - |
| 1777656752 | 18.89° C | - | 1017.9 hPa | 0 mm | - | - | - |
| 1777656452 | 18.33° C | - | 1021.6 hPa | 0 mm | - | - | - |
| 1777656151 | 18.33° C | - | 1021.3 hPa | 0 mm | - | - | - |
| 1777655851 | 18.33° C | - | 1026.1 hPa | 0 mm | - | - | - |
| 1777655551 | 18.89° C | - | 1023.4 hPa | 0 mm | - | - | - |
| 1777655249 | 18.33° C | - | 1023 hPa | 0 mm | - | - | - |
| 1777654950 | 19.44° C | - | 1022.7 hPa | 0 mm | - | - | - |
| 1777654648 | 18.33° C | - | 1023.2 hPa | 0 mm | - | - | - |
| 1777654347 | 18.33° C | - | 1024.6 hPa | 0 mm | - | - | - |
| 1777654047 | 18.89° C | - | 1022 hPa | 0 mm | - | - | - |
| 1777653744 | 18.89° C | - | 1022.4 hPa | 0 mm | - | - | - |
| 1777653444 | 19.44° C | - | 1022 hPa | 0 mm | - | - | - |
| 1777653143 | 18.89° C | - | 1020.7 hPa | 0 mm | - | - | - |
| 1777652834 | 18.89° C | - | 1023.6 hPa | 0 mm | - | - | - |
| 1777652532 | 20° C | - | 1024 hPa | 0 mm | - | - | - |
| 1777652230 | 19.44° C | - | 1021.6 hPa | 0 mm | - | - | - |
| 1777651930 | 18.33° C | - | 1023.4 hPa | 0 mm | - | - | - |
| 1777651628 | 19.44° C | - | 1022.4 hPa | 0 mm | - | - | - |
| 1777651328 | 18.33° C | - | 1021.1 hPa | 0 mm | - | - | - |
| 1777651024 | 18.33° C | - | 1019.4 hPa | 0 mm | - | - | - |
| 1777650724 | 20° C | - | 1023.4 hPa | 0 mm | - | - | - |
| 1777650423 | 18.33° C | - | 1024.9 hPa | 0 mm | - | - | - |
* Rain since midnight (hover to see other rain measurements)
** Current wind speed in m/s (hover to see current wind gust speed)